FW1924 Weather Reports


Display with metric or nautical units.
time (UTC)temp
F
wind
direction
speed
MPH
gust
MPH
rain 1hr
in
rain 24hr
in
rain mn
in
humidity
%
barometer
mb
20260902171515 76 153 16.0 37.0 0.00 0.02 0.01 37 1004.2
20260902170005 74 186 17.0 25.0 0.00 0.02 0.01 36 1004.1
20260902164553 74 184 23.0 35.0 0.00 0.02 0.01 36 1004.1
20260902163059 73 201 17.0 32.0 0.00 0.02 0.01 40 1004.0
20260902161541 72 94 11.0 21.0 0.00 0.02 0.01 45 1004.1
20260902160038 71 157 8.0 19.0 0.00 0.02 0.01 47 1004.2
20260902154528 71 113 9.0 18.0 0.00 0.03 0.01 49 1004.2
20260902153022 70 144 8.0 23.0 0.01 0.03 0.01 50 1004.1
20260902151506 68 111 8.0 21.0 0.01 0.03 0.01 52 1004.1
20260902150001 67 184 12.0 22.0 0.01 0.03 0.01 55 1004.1
20260902144552 66 103 9.0 19.0 0.01 0.03 0.01 58 1003.8
20260902143039 65 161 8.0 18.0 0.00 0.02 0.00 60 1003.8
20260902141529 63 152 9.0 17.0 0.00 0.02 0.00 64 1003.8
20260902140019 62 169 5.0 15.0 0.00 0.02 0.00 67 1003.7
20260902134508 61 188 0.0 8.0 0.00 0.02 0.00 67 1003.4
20260902133008 62 173 0.0 10.0 0.00 0.02 0.00 65 1003.4
20260902131523 62 148 1.0 6.0 0.00 0.02 0.00 61 1003.6
20260902130032 62 180 0.0 10.0 0.00 0.02 0.00 60 1003.6
20260902124519 62 205 1.0 10.0 0.00 0.02 0.00 58 1003.6
20260902123021 63 179 2.0 7.0 0.00 0.02 0.00 57 1003.6
20260902121507 63 201 0.0 5.0 0.00 0.02 0.00 55 1003.7
20260902120108 64 176 0.0 7.0 0.00 0.02 0.00 54 1003.6
20260902114556 64 194 2.0 9.0 0.00 0.02 0.00 53 1003.6
20260902113055 65 226 4.0 11.0 0.00 0.02 0.00 52 1003.7
20260902111555 65 186 7.0 12.0 0.00 0.02 0.00 51 1003.6
20260902110038 65 192 4.0 11.0 0.00 0.02 0.00 50 1003.7
20260902104551 65 198 5.0 11.0 0.00 0.02 0.00 50 1003.6
20260902103044 65 173 7.0 15.0 0.00 0.02 0.00 51 1003.6
20260902101536 65 186 8.0 13.0 0.00 0.02 0.00 52 1003.7
20260902100037 64 194 4.0 11.0 0.00 0.02 0.00 52 1003.9
20260902094532 64 170 2.0 9.0 0.00 0.03 0.00 50 1004.1
20260902093023 65 195 0.0 10.0 0.00 0.03 0.00 50 1004.3
20260902091522 65 186 6.0 11.0 0.00 0.03 0.00 50 1004.2
20260902090021 65 178 9.0 15.0 0.00 0.03 0.00 53 1004.1
20260902084512 66 184 6.0 16.0 0.00 0.03 0.00 55 1004.1
20260902083004 66 169 7.0 18.0 0.00 0.03 0.00 55 1004.1
20260902081557 66 151 11.0 17.0 0.00 0.03 0.00 53 1004.1
20260902080053 66 173 12.0 18.0 0.00 0.03 0.00 52 1004.2
20260902074550 66 159 1.0 11.0 0.00 0.04 0.00 50 1004.1
20260902073037 66 124 0.0 7.0 0.00 0.04 0.00 48 1004.1
20260902071528 67 165 6.0 14.0 0.00 0.04 0.00 47 1004.1
20260902070020 67 150 4.0 12.0 0.00 0.04 0.00 47 1004.0
20260902064510 66 151 10.0 16.0 0.00 0.04 0.00 47 1004.0
20260902063006 65 173 8.0 16.0 0.00 0.04 0.00 49 1003.8
20260902061556 65 193 0.0 0.0 0.00 0.04 0.00 54 1003.8
20260902060054 66 182 0.0 7.0 0.00 0.04 0.00 55 1003.8
20260902054548 66 194 1.0 8.0 0.00 0.04 0.04 54 1003.9
20260902053039 66 166 0.0 8.0 0.00 0.04 0.04 54 1004.0
20260902051544 67 185 0.0 9.0 0.00 0.04 0.04 53 1004.0
20260902050132 67 168 0.0 4.0 0.00 0.04 0.04 53 1004.1
20260902044522 68 173 2.0 11.0 0.00 0.04 0.04 52 1004.1
20260902043028 68 215 0.0 9.0 0.00 0.04 0.04 52 1004.0
20260902041507 68 197 1.0 10.0 0.00 0.04 0.04 52 1003.9
20260902040007 69 194 0.0 6.0 0.00 0.04 0.04 51 1004.1
20260902034601 70 182 0.0 5.0 0.00 0.05 0.04 53 1003.9
20260902033052 71 178 3.0 10.0 0.00 0.05 0.04 53 1003.8
20260902031548 71 165 5.0 12.0 0.00 0.05 0.04 52 1003.8
20260902030034 72 158 8.0 14.0 0.00 0.05 0.04 51 1003.5
20260902024543 72 200 5.0 14.0 0.00 0.06 0.04 50 1003.4
20260902023027 73 186 6.0 14.0 0.00 0.06 0.04 49 1003.4
20260902021526 73 155 5.0 14.0 0.00 0.06 0.04 47 1003.4
20260902020026 74 177 7.0 16.0 0.00 0.06 0.04 46 1003.4
20260902014518 74 148 6.0 16.0 0.00 0.06 0.04 45 1003.4
20260902013009 75 153 10.0 19.0 0.00 0.06 0.04 43 1003.4
20260902011601 75 170 7.0 19.0 0.00 0.06 0.04 44 1003.5
20260902010009 76 119 6.0 21.0 0.00 0.06 0.04 44 1003.6
20260902004513 77 108 13.0 24.0 0.00 0.07 0.04 42 1003.7
20260902003005 77 150 11.0 21.0 0.00 0.07 0.04 41 1004.0
20260902001556 78 144 12.0 19.0 0.00 0.07 0.04 41 1004.1
20260902000047 78 180 14.0 22.0 0.00 0.07 0.04 41 1004.3
20260901234539 78 155 11.0 25.0 0.00 0.09 0.04 40 1004.3
20260901233038 79 148 14.0 21.0 0.00 0.09 0.04 39 1004.5
20260901231535 80 137 10.0 23.0 0.00 0.09 0.04 40 1004.7
20260901230026 80 170 9.0 20.0 0.00 0.09 0.04 40 1004.8
20260901224522 81 121 10.0 23.0 0.00 0.09 0.04 39 1004.8
20260901223009 81 121 7.0 24.0 0.00 0.09 0.04 39 1005.4
20260901221601 80 119 12.0 21.0 0.00 0.09 0.04 40 1005.5
20260901220126 80 155 10.0 19.0 0.00 0.09 0.04 38 1005.4
20260901214552 81 159 8.0 33.0 0.00 0.09 0.04 40 1006.0
20260901213051 81 157 11.0 24.0 0.00 0.09 0.04 38 1006.2
20260901211538 80 145 17.0 26.0 0.00 0.09 0.04 39 1006.3
20260901210030 79 208 12.0 25.0 0.00 0.09 0.04 42 1006.7
20260901204528 80 155 9.0 21.0 0.00 0.09 0.04 42 1006.8
20260901203010 79 91 7.0 18.0 0.00 0.09 0.04 44 1007.0
20260901201607 78 156 14.0 21.0 0.00 0.09 0.04 46 1007.4
20260901200058 78 165 8.0 18.0 0.00 0.09 0.04 46 1007.7
20260901194551 76 154 13.0 24.0 0.00 0.09 0.04 46 1007.8
20260901193043 75 146 11.0 21.0 0.00 0.09 0.04 51 1008.0
20260901191544 73 145 12.0 24.0 0.00 0.09 0.04 51 1008.2
20260901190026 73 159 9.0 25.0 0.00 0.09 0.04 51 1008.3
20260901184532 73 138 12.0 20.0 0.00 0.09 0.04 50 1008.5
20260901183019 74 140 9.0 17.0 0.01 0.09 0.04 50 1008.4
20260901181530 74 163 13.0 25.0 0.01 0.09 0.04 49 1008.7
20260901180015 73 157 14.0 25.0 0.01 0.09 0.04 50 1009.0
20260901174539 73 163 13.0 19.0 0.01 0.09 0.04 53 1008.7
20260901173003 72 135 10.0 25.0 0.00 0.08 0.03 55 1008.6